カタログに戻る

FENGYUN 1C DEB

運用中PO
NORAD 31492·DEBRIS·🇨🇳 China

打ち上げ May 10, 1999 から Taiyuan Satellite Launch Center

Loading…

次のパス (今後24時間)

TLE

最新Source: Space-Track

元期: Sep 14, 2026, 00:09 UTC

1 31492U 99025BWF 26257.00678618  .00014858  00000-0  18162-2 0  9998
2 31492  98.8583  95.0832 0049018 222.6698 137.0701 14.82512761  5490

AllMySatでFENGYUN 1C DEBをリアルタイム追跡

Download on the App Store